CAPE
1503 1063 1017 818 598 491 414 363 333 332 348 104 53 36 4 0 0 0 0 6 0 0 0 0 1 0 12 22 52 119 151 107 87 111 125 169 158 52 43 289 177 207 219
610 545 449 355 187 39 2 0 0 0 0 0 0 0 0 0 0 0 0 0 0 0 0 0 0 0 0 0 0 0 0 0 3 26 20 27 22 43 62 101 114 244 352
151 57 18 0 0 0 0 0 0 0 0 0 0 0 0 0 0 0 0 0 0 0 0 0 0 0 0 0 0 0 0 0 0 0 0 0 0 0 25 203 176 209 268
0 0 0 0 0 0 0 0 0 0 0 0 0 0 0 0 0 0 0 0 0 0 0 0 0 0 0 0 0 0 0 0 0 0 0 0 0 0 0 0 0 4 60
0 0 0 0 0 0 0 0 0 0 0 0 0 0 0 0 0 0 0 0 0 0 0 0 3 0 0 0 0 0 0 0 0 0 0 0 0 0 0 0 0 0 0
0 0 0 0 0 0 0 0 0 0 0 0 0 0 0 0 0 0 0 0 0 0 0 1 0 0 0 0 0 0 0 0 1 2 0 2 0 0 0 0 0 0 0
0 0 0 0 0 0 0 0 0 0 0 0 0 0 0 0 0 0 0 0 0 1 0 0 0 0 0 0 0 0 0 1 0 4 3 3 5 7 5 3 3 1 0
0 0 0 0 0 0 0 0 0 0 0 0 0 0 0 0 0 0 0 0 2 2 2 1 2 0 0 0 0 0 0 1 5 4 0 0 0 2 1 0 0 0 0
0 0 0 0 0 0 0 0 0 0 0 0 0 0 0 0 0 0 0 0 1 0 3 0 0 0 0 0 0 0 0 0 0 0 0 0 0 0 0 0 0 0 1
0 0 0 0 0 0 0 0 0 0 0 0 0 0 0 0 0 0 0 0 0 0 3 0 0 0 0 0 0 0 0 0 0 0 0 0 0 0 0 0 0 0 1
0 0 0 0 0 0 0 0 0 0 1 0 0 0 0 1 0 0 0 0 0 0 0 0 0 0 0 0 0 0 0 0 0 1 1 1 0 0 0 1 3 3 4
0 0 0 0 0 0 1 0 0 0 0 0 0 0 0 0 0 0 0 0 0 0 0 0 0 0 0 0 0 0 0 0 0 0 1 0 0 0 1 0 0 4 5
0 0 0 0 0 0 1 0 0 0 0 0 0 0 0 0 0 0 0 0 0 0 1 0 0 0 0 0 0 0 0 0 0 3 2 0 0 5 5 0 0 4 2
0 0 0 0 0 0 0 0 0 0 0 0 0 0 0 0 0 0 0 0 0 0 0 0 0 0 0 0 0 0 0 1 0 1 0 1 1 0 1 5 2 2 3
0 0 0 0 0 0 0 0 0 0 0 0 0 0 0 0 0 0 0 0 0 0 0 1 0 0 0 0 0 0 0 1 0 1 1 1 0 0 2 3 2 2 4
0 0 0 0 0 0 0 0 0 0 0 0 0 0 0 0 0 0 0 0 0 0 0 0 0 0 0 0 0 0 0 0 0 0 0 2 2 2 3 3 2 3 5
0 0 0 0 0 0 0 0 0 0 0 0 0 0 0 0 0 0 0 0 0 0 0 0 0 0 0 0 0 1 0 0 1 1 1 2 2 3 3 4 4 3 5
0 0 0 0 1 0 0 0 0 0 0 0 0 0 0 0 0 0 0 0 0 0 0 0 0 0 0 0 0 0 0 0 1 0 0 1 2 3 4 4 3 5 4
1 0 0 0 0 0 0 0 0 0 1 0 0 0 0 0 0 0 0 0 0 0 0 0 0 0 0 0 0 0 0 0 0 0 1 2 2 3 4 4 3 3 2
0 0 0 0 0 0 0 0 0 0 0 0 0 0 0 0 0 0 0 0 0 0 0 0 0 0 0 0 0 0 0 0 0 0 1 2 2 2 3 3 2 3 5
0 0 0 0 0 0 0 0 0 0 0 0 0 0 0 0 0 0 0 0 0 0 0 0 0 0 0 0 0 0 0 0 0 0 1 1 0 2 2 0 1 2 3
0 0 0 0 0 1 0 0 0 0 0 0 0 0 0 0 0 0 0 0 0 0 0 0 0 0 0 0 0 0 0 0 0 0 0 0 0 0 0 0 2 2 3
0 0 0 0 0 0 0 0 0 0 0 0 0 0 0 0 0 0 0 0 0 0 0 0 0 0 0 0 0 0 0 0 0 0 0 0 0 0 0 0 0 3 3
0 0 0 0 0 0 0 0 0 0 0 0 0 0 0 0 0 0 0 0 0 0 0 0 0 0 0 0 0 0 0 0 0 0 0 0 0 0 0 0 0 0 2
0 0 0 0 0 0 0 0 0 0 0 0 0 0 0 0 0 0 0 0 0 0 0 0 0 0 0 0 0 0 0 0 0 0 0 0 0 0 0 0 0 0 0
0 0 0 0 0 0 0 0 0 0 0 0 0 0 0 0 0 0 0 0 0 0 0 0 0 0 0 0 0 0 0 0 0 0 0 0 0 0 0 0 0 0 0
CIN
-16 -55 -61 -106 -191 -211 -210 -180 -162 -127 -107 -177 -164 -106 -57 0 0 0 0 -47 0 0 0 -1 -7 0 -14 -9 -42 -12 -10 -30 -38 -56 -77 -76 -62 -67 -64 -14 -35 -20 -25
-78 -105 -132 -191 -257 -359 -21 0 0 0 0 0 0 0 0 0 0 0 0 0 0 0 0 0 0 0 0 0 0 0 0 -1 -5 -12 -74 -97 -96 -49 -27 -30 -35 -32 -19
-176 -260 -242 0 0 0 0 0 0 0 0 0 0 0 0 0 0 0 0 0 0 0 0 0 0 0 0 0 0 0 0 0 0 0 0 0 0 0 -19 -6 -8 -13 -28
0 0 0 0 0 0 0 0 0 0 0 0 0 0 0 0 0 0 0 0 0 0 0 0 0 0 0 0 0 0 0 0 0 0 0 0 0 0 0 0 0 -7 -6
0 0 0 0 0 0 0 0 0 0 0 0 0 0 0 0 0 0 0 0 0 0 0 0 -10 0 0 0 0 0 0 0 0 0 0 0 0 0 0 0 0 0 0
0 0 0 0 0 0 0 0 0 0 0 0 0 0 0 0 0 0 0 0 0 0 0 -11 0 0 0 0 0 0 -1 -1 -1 0 0 0 0 0 0 0 0 0 0
0 0 0 0 0 0 0 0 0 0 0 0 0 0 0 0 0 0 0 0 -1 -12 0 0 0 0 0 0 0 0 0 -1 -4 -3 -2 -3 -4 -4 -5 -6 -7 -7 0
0 0 0 0 0 0 0 0 0 0 0 0 0 0 0 0 0 0 0 0 -5 -4 -17 -11 -8 -3 0 0 0 0 0 -2 -5 -6 -4 0 -3 -12 -2 -3 -1 0 0
0 0 0 0 0 0 0 0 0 0 0 0 0 0 -1 0 0 0 0 0 -2 -2 -2 -2 -1 0 0 0 0 0 -6 -1 0 0 0 0 0 0 0 0 0 0 0
0 0 0 0 0 0 0 0 0 0 0 0 0 0 0 0 0 0 0 0 0 0 -2 0 0 0 0 0 0 0 0 0 0 0 0 0 0 0 0 -1 -1 0 0
0 0 0 0 0 0 0 0 -1 0 -1 0 0 0 0 -2 0 0 0 0 0 0 -2 -2 0 0 0 0 0 0 0 0 0 0 0 0 0 0 0 0 0 0 0
0 0 0 0 0 0 -1 -1 -1 -1 0 0 0 0 -5 0 0 0 0 0 0 -1 -1 0 -6 0 0 0 0 0 0 0 0 0 0 0 0 -1 -1 0 0 0 0
0 0 0 0 0 0 -1 -1 -1 0 0 -1 0 0 0 0 0 0 0 0 -1 0 -6 -1 0 0 0 0 0 0 0 0 0 0 0 0 0 0 0 -1 0 0 0
0 0 0 0 -1 -1 0 0 0 0 0 0 0 0 0 0 0 0 0 0 0 0 0 0 0 0 -3 -2 0 0 0 0 0 0 0 0 -1 0 0 0 0 0 0
0 0 0 -1 0 0 0 0 0 0 0 0 0 0 0 0 0 0 0 0 0 0 0 -2 0 0 0 0 0 0 0 0 0 -1 0 0 0 0 0 0 0 0 0
0 0 0 0 0 0 0 0 0 0 0 0 0 0 0 0 0 0 0 0 0 0 0 -1 0 0 0 0 0 0 -1 0 -1 -1 0 0 0 0 0 0 0 0 0
0 0 0 0 0 0 0 0 0 0 0 0 0 0 0 0 0 0 0 0 0 -1 -1 0 0 -1 0 -1 -2 -1 -1 -2 -1 -1 0 0 0 0 0 0 0 0 0
0 0 -2 0 -1 -1 -1 0 0 0 0 0 0 0 0 0 0 0 0 0 0 0 0 -1 0 0 0 0 0 0 0 -3 -2 0 0 0 0 0 0 0 0 0 0
0 -1 -1 0 0 0 -1 0 0 0 -1 0 0 0 0 0 0 0 0 0 0 0 0 0 0 0 0 0 0 0 0 0 -1 0 0 0 0 0 0 0 0 0 0
0 0 0 0 -1 0 0 0 0 -1 -1 0 0 -1 0 0 0 0 0 0 0 0 0 0 0 0 0 0 0 0 0 0 0 0 0 0 0 0 0 0 0 0 0
0 0 0 -1 -1 0 -1 -1 -1 -1 0 0 0 0 0 0 0 0 0 0 0 0 0 0 0 0 0 0 0 0 0 0 0 0 0 0 0 0 0 0 0 0 0
-1 0 0 -1 -1 -1 -1 0 0 0 0 0 0 0 0 0 0 0 0 0 0 0 0 0 0 0 0 0 0 0 0 0 0 0 0 0 0 0 0 0 0 0 0
0 -1 0 0 0 0 0 0 0 0 0 0 0 0 0 0 0 0 0 0 0 0 0 0 0 0 0 0 0 0 0 0 0 0 0 0 0 0 0 0 0 0 0
0 0 0 0 0 0 0 0 0 0 0 0 0 0 0 0 0 0 0 0 0 0 0 0 0 0 0 0 0 0 0 0 0 0 0 0 0 0 -5 0 0 0 0
0 0 0 0 0 0 0 0 0 0 0 0 0 0 0 0 0 0 0 0 0 0 0 0 0 0 0 0 0 0 0 0 0 0 0 0 0 0 0 0 0 0 0
0 0 0 0 0 0 0 0 0 0 0 0 0 0 0 0 0 0 0 0 0 0 0 0 0 0 0 0 0 0 0 0 0 0 0 0 0 0 0 0 0 0 0
Wind_Speed
10 9 8 6 4 2 4 7 9 10 11 13 13 15 17 20 23 25 26 25 28 28 29 30 32 33 32 32 31 30 30 30 33 32 30 29 29 31 31 27 25 26 24
10 9 7 4 2 1 4 7 9 11 13 15 17 18 19 22 22 24 26 28 30 31 32 33 33 33 35 34 33 33 34 34 35 37 35 35 35 31 29 30 31 31 32
11 9 6 3 3 3 5 7 9 12 15 17 19 20 23 25 27 25 28 30 32 33 34 35 35 35 35 33 34 35 36 36 37 39 40 37 37 37 38 35 34 33 31
10 8 7 6 5 5 7 9 11 14 16 18 21 22 24 25 26 28 30 32 34 35 35 35 35 33 32 34 34 34 35 37 37 37 38 38 38 38 37 38 38 35 34
10 9 7 6 6 7 8 10 13 16 19 21 22 24 26 25 28 30 33 34 32 31 31 31 29 29 30 30 32 32 34 36 36 36 37 37 36 40 39 39 41 41 40
10 8 7 6 6 7 9 12 16 19 22 23 25 26 27 26 30 33 35 32 27 19 13 23 24 27 30 30 30 31 32 34 34 34 34 36 39 40 40 42 44 46 47
8 6 6 5 6 9 12 16 19 22 24 26 27 26 25 27 31 34 33 26 24 26 25 23 22 24 27 29 32 33 31 29 26 27 30 32 33 33 35 36 37 38 41
4 3 4 7 10 13 16 19 22 24 25 25 25 24 24 28 30 32 31 26 26 26 23 21 21 21 25 28 30 28 27 28 25 25 25 26 27 26 24 22 23 22 24
2 5 8 10 13 16 19 21 23 23 22 22 23 24 24 25 28 30 29 26 27 27 27 25 22 24 27 29 26 22 21 21 25 20 14 18 23 24 25 27 26 26 25
6 8 11 14 16 18 20 21 21 21 21 21 21 23 23 23 25 29 30 29 30 28 25 24 27 27 28 27 21 19 21 19 14 17 19 20 22 22 24 23 25 25 25
10 12 14 16 16 18 18 19 19 19 19 20 20 19 20 21 24 27 30 29 29 26 24 23 22 28 28 26 23 23 22 21 18 19 20 20 22 22 21 27 26 23 17
13 13 14 15 17 18 18 17 18 19 19 19 19 19 18 20 23 27 29 29 28 26 23 23 23 22 23 24 22 26 30 29 22 23 23 23 24 24 23 25 25 18 16
15 14 16 16 17 16 17 18 18 19 19 17 18 19 20 19 23 28 29 29 28 26 23 23 21 19 19 25 23 23 28 30 29 26 28 27 24 23 23 23 21 17 14
15 15 14 15 15 16 17 18 18 19 18 17 19 20 20 22 25 26 27 28 29 26 26 23 22 20 18 22 28 31 32 32 32 31 28 24 23 23 25 23 19 18 16
12 13 13 13 13 15 16 17 16 17 17 17 18 18 21 22 24 24 25 28 28 22 22 23 27 25 25 24 26 30 32 32 34 35 30 27 24 25 24 20 20 20 21
12 13 15 13 12 13 13 14 16 16 16 16 17 18 19 22 22 23 24 27 29 27 27 28 29 28 26 27 28 27 26 32 35 35 31 25 22 22 17 19 19 18 16
14 14 14 13 12 10 10 12 13 14 14 16 17 18 20 21 22 23 24 23 29 28 29 30 30 31 29 29 30 30 24 24 25 28 31 25 20 20 17 18 17 21 17
13 12 12 12 12 11 11 10 12 11 12 14 16 17 19 20 22 23 24 25 27 29 30 30 30 30 29 28 29 28 25 25 24 26 25 22 20 21 17 17 17 16 17
12 11 11 12 12 11 11 12 12 12 13 14 14 16 17 18 21 23 24 26 27 29 29 29 29 29 29 29 28 27 30 32 33 28 22 21 21 23 20 16 16 15 13
12 11 11 11 9 10 10 11 11 11 12 14 15 15 16 16 20 22 24 25 26 28 28 29 30 32 33 34 36 35 34 36 34 30 25 19 20 22 21 16 16 14 14
9 9 10 9 9 9 10 10 11 10 11 14 16 15 16 18 20 21 23 25 26 27 29 31 32 33 34 36 37 37 37 34 31 28 23 21 20 18 18 21 17 17 17
8 7 9 8 8 8 9 9 10 10 10 11 13 16 16 18 20 21 23 24 26 27 29 30 32 33 35 36 38 38 39 36 31 25 20 20 18 19 23 32 25 23 20
7 8 8 8 8 7 8 9 9 10 11 12 13 15 17 18 20 21 23 24 26 27 28 30 31 33 35 36 37 38 39 38 31 25 22 19 18 18 27 39 40 38 35
6 7 7 6 6 7 8 9 10 10 10 11 13 15 16 18 19 21 23 24 25 27 28 29 30 32 35 36 37 38 40 40 36 32 26 23 23 35 26 30 38 39 37
4 8 7 6 7 6 6 7 8 9 10 11 13 14 16 18 19 21 23 24 25 27 28 29 31 31 34 36 38 39 40 40 40 41 38 33 38 39 35 34 32 37 38
5 5 5 6 6 6 6 6 7 8 10 11 12 14 16 18 20 22 23 25 26 27 28 29 31 31 35 36 38 39 40 40 40 40 41 40 40 40 40 41 41 34 37
Wind_Direction
209 203 194 201 222 279 327 338 349 357 1 1 360 356 352 348 342 337 336 338 334 333 332 329 327 326 326 327 327 327 327 326 319 321 324 323 320 313 310 313 314 310 313
184 176 169 166 177 345 354 359 1 2 0 355 352 351 348 345 342 340 340 336 334 332 328 326 324 323 321 322 325 325 324 324 321 317 319 317 316 317 314 312 308 304 301
161 159 158 147 104 55 31 25 19 5 355 352 350 346 341 336 337 342 338 335 333 330 327 324 322 322 320 324 324 323 322 321 319 317 316 317 316 316 313 310 307 307 305
148 142 129 110 80 49 33 16 0 354 351 351 344 344 339 340 342 339 337 335 333 329 326 324 322 322 323 323 324 325 324 323 322 320 318 319 318 318 318 316 313 315 312
136 126 112 90 63 42 17 3 354 346 345 344 342 340 338 344 342 339 336 336 336 333 330 329 331 332 330 331 328 328 327 325 324 323 322 322 322 319 318 316 312 310 307
128 113 94 75 49 22 4 353 343 341 339 341 339 337 337 343 342 340 339 340 345 350 346 350 345 343 338 336 334 332 330 328 327 327 326 323 320 319 317 315 312 308 303
118 99 75 44 8 350 353 340 334 337 337 332 335 340 345 345 345 340 343 357 2 4 4 3 356 351 347 343 338 335 336 337 337 335 332 329 329 329 328 326 323 317 311
96 51 8 347 338 341 334 332 334 330 331 336 341 351 352 350 347 347 348 2 3 4 9 9 10 9 0 353 348 350 349 345 350 353 353 349 346 345 345 344 342 340 334
352 332 328 331 332 332 331 333 329 330 336 344 351 351 353 356 350 352 357 4 4 6 8 9 15 9 3 358 3 10 17 16 5 13 18 10 1 355 349 345 341 336 330
319 322 323 324 326 333 330 324 326 336 339 348 353 354 359 355 355 354 355 356 355 1 11 16 12 11 7 10 25 28 22 24 32 25 19 14 11 9 5 3 352 343 336
318 320 322 316 327 329 323 325 331 342 346 349 355 1 1 1 358 358 357 356 358 6 15 17 19 10 11 14 23 21 18 16 19 16 13 14 11 10 9 3 355 349 334
312 313 306 304 321 334 329 338 340 342 350 359 4 2 5 5 1 359 358 354 2 11 16 18 17 22 23 19 23 5 355 1 12 11 11 7 5 4 2 359 357 348 341
299 309 294 318 329 333 329 338 346 345 354 8 2 358 359 8 353 348 347 351 5 11 21 23 29 35 35 18 18 13 1 359 2 4 1 1 1 360 358 0 357 353 344
313 322 304 311 323 323 335 343 346 349 355 357 352 352 355 353 351 350 352 1 5 15 21 32 36 37 38 26 4 355 354 355 356 357 360 2 2 3 2 5 357 359 3
305 300 312 315 331 341 346 346 0 356 350 351 351 357 355 356 349 353 5 6 11 35 35 33 27 30 28 26 20 8 0 360 354 352 359 2 3 2 4 8 8 9 10
305 301 298 330 347 0 10 11 11 11 4 1 358 2 15 5 356 358 11 11 1 24 28 28 29 32 33 29 24 23 22 8 1 358 5 9 10 10 7 10 13 14 10
298 308 312 330 357 31 23 21 15 9 359 7 8 8 8 1 353 355 14 33 14 22 28 28 27 28 31 30 26 26 30 28 23 17 12 18 22 20 16 14 12 15 11
311 320 341 351 9 7 20 40 28 17 6 10 11 10 12 12 5 1 8 19 20 18 26 28 29 29 32 32 30 30 31 28 29 26 26 29 29 25 22 19 17 12 10
329 345 351 343 1 12 21 23 13 354 360 9 18 12 28 30 27 17 14 20 20 21 26 30 31 30 30 30 30 29 25 23 22 28 34 34 30 27 26 26 21 20 14
336 344 357 2 15 32 33 30 24 357 1 6 359 9 18 37 12 11 16 18 21 23 27 27 24 23 21 19 17 19 22 18 21 28 31 35 32 30 30 26 29 23 22
350 357 359 10 14 23 31 29 32 5 7 12 12 15 4 2 11 12 11 13 15 19 20 19 18 17 17 15 13 16 17 24 28 30 32 32 31 30 30 31 30 33 32
10 11 356 4 16 23 32 36 34 16 5 17 21 11 14 8 9 9 9 10 11 13 18 17 17 16 13 12 9 10 13 21 27 31 30 29 29 30 31 22 29 36 40
341 343 353 352 2 20 20 19 17 12 359 360 5 6 6 6 7 7 8 8 9 12 17 15 14 15 13 12 9 8 7 14 26 30 28 27 27 28 27 7 355 355 8
346 338 350 359 1 358 356 359 2 1 359 359 3 5 6 7 5 2 2 5 8 12 16 13 11 12 10 9 6 4 1 1 14 23 30 31 31 20 28 22 4 352 350
352 332 342 346 347 359 8 4 0 353 350 352 358 1 3 0 1 2 360 0 6 11 10 10 6 10 6 2 359 355 350 347 348 349 14 24 15 15 22 21 19 5 355
321 331 325 325 323 328 335 347 349 343 345 350 356 358 355 357 354 357 359 356 3 5 7 8 2 8 2 0 355 353 351 349 349 347 358 4 5 8 10 10 6 17 5